Showing default

QIANFAN-11, 60389

Orbit data source: Space-Track

QIANFAN-11, 60389 is a Chinese payload satellite in LEO that was launched on Tue, 06 Aug 2024 UTC via a CHANG ZHENG 6A launch vehicle from the Taiyaun Space Center, China (TSC). Payload-class satellites include a variety of spacecraft equipped with specific instruments for various scientific and technological missions. These include communications satellites like Starlink; space stations such as the ISS; scientific satellites like the Hubble; Earth observation satellites from companies like Planet Labs, Umbra, and HawkEye 360; GPS; miniature CubeSats for education and research; and military/defense satellites.

Loading next visibility...
Identifier
60389, 2024-140L
Orbit
LEO
Country
Flag of CNCN / PRC
Related business
Manufacturer
SECM
Mission
Operational Commercial Communications
Bus & Motor
QIANFAN, Unknown motor
Mass
267 kg wet, ~267 kg dry
Launch date (UTC)
2024-08-06 (2 years ago)
Launch vehicle
CHANG ZHENG 6A
Launch site
Taiyaun Space Center, China (TSC)
Object type
Payload
Rocket body
Debris
Shape & HBR
Box + 1 Pan, 5.0 m
Radar Cross Section
13.200 m², Large (>1 m²)

Expand to show TLE details & history
Last TLE update: 11 hours ago

TLE from 11 hours ago
0 QIANFAN-11
1 60389U 24140L   26171.40169466  .00000124  00000-0  17323-3 0  9996
2 60389  88.9678 279.4730 0014276  18.9950 341.1731 13.51011109 92720
Epoch: 2026-06-20T09:38Z
TLE epoch observation values (Epoch: 2026-06-20T09:38:26.418Z)
Latitude
-0°
Longitude
-133.75392°
Altitude
1,061.431 km
Speed
7.326 km/s
True Right ascension
18h 37m 53s
True Declination
0° 00' 00"
Sunlit
Object was in full shadow at epoch
Visualization orbit readout
Latitude
Unknown
Longitude
Unknown
Altitude
Unknown
Speed
Unknown
Apparent Right ascension
Unknown
Apparent Declination
Unknown
Sunlit
N/A
Visualization observer readout
Local Sidereal Time
07:24:16
Azimuth
Unknown
Elevation
Unknown
Doppler factor
Unknown
Orbital elements
Apogee altitude
1,076.219 km
Perigee altitude
1,054.965 km
Semi-major axis
7,443.729 km
Eccentricity
0.00143
Inclination
88.9678°
RAAN
279.473°
Arg. of periapsis
18.995°
True anomaly
341.12022°
Mean anomaly
341.1731°
Eccentric anomaly
341.14667°
Mean motion
3.37954 °/min
Orbital period
106.52 mins
BSTAR
0.00017323
Loading maneuver chart data...
Computing Atmospheric mass density...
Loading historical data...
Loading historical data...
Loading historical data...
Loading historical data...
Loading historical data...
Loading historical data...
Loading historical data...

Documentation

Showing up to 5 results
|